Location: Newark
(4.2170°N, 12.9170°E)
Time: 17:35:48
(UTC+00:00)

N. Korean satellite - Pass Details

Date: 17 November 2019
Orbit: 456 x 506 km, 97.2° (Epoch: 05 December)

Event Time Altitude Azimuth Distance (km) Brightness Sun altitude
Rises 17:25:00 0° 203° (SSW) 2,506 10.9 -8.9°
Reaches altitude 10° 17:28:02 10° 233° (SW) 1,640 10.6 -9.6°
Maximum altitude 17:29:37 13° 260° (W) 1,488 10.5 -9.9°
Drops below altitude 10° 17:31:13 10° 287° (WNW) 1,650 10.1 -10.3°
Sets 17:34:17 0° 317° (NW) 2,540 10.6 -11.1°
